Terminal Aerodrome Forecast
Issued by NWS Wilmington, NC

Home | Current Version | Previous Version | Text Only | Print | Product List | Glossary On
Versions: 1 2 3 4 5 6 7 8 9 10 11 12 13 14 15 16 17 18 19 20 21 22 23 24 25 26 27 28 29 30 31 32 33 34 35 36 37 38 39 40 41 42
979
FTUS42 KILM 230554 CCA
TAFFLO
TAF COR
KFLO 230554Z 2306/2406 13013KT P6SM SCT006 OVC014
      TEMPO 2306/2308 21009KT 3SM -SHRA BKN006
     FM230800 22008KT P6SM VCSH SCT015 BKN040
     FM231200 23009KT P6SM SCT030 OVC250
     FM231500 24014KT P6SM VCSH BKN025 OVC120
     FM232100 28007KT P6SM OVC040=

USA.gov is the U.S. government's official web portal to all federal, state and local government web resources and services.